Tracking 25734 objects as of 27-May-2022
HD Live streaming from Space Station
objects crossing your sky now

COSMOS 1823 DEB

Track COSMOS 1823 DEB now!
10-day predictions


NORAD ID: 19006
Int'l Code: 1987-020BB
Perigee: 951.4 km
Apogee: 1,049.7 km
Inclination: 73.4 °
Period: 105.0 minutes
Semi major axis: 7371 km
RCS: 0.0433 m2 (small)
Launch date: February 20, 1987
Source: Commonwealth of Independent States (former USSR) (CIS)
Launch site: PLESETSK MISSILE AND SPACE COMPLEX (PKMTR)

Note: This is SATELLITE DEBRIS
aabbcc
Your satellite tracking list
Your tracking list is empty




NASA's NSSDC Master Catalog

Two Line Element Set (TLE):
1 19006U 87020BB  22147.60789921  .00012864  00000-0  14020-1 0  9990
2 19006  73.4324  92.4312 0066663 192.5365 342.3703 13.71724367639955
Source of the keplerian elements: AFSPC